CAPE
10 112 246 683 283 250 49 70 102 136 124 50 106 71 174 357 121 24 472 869 1243 1415 1581 1731 2326 2174 2058 1959 2091 2108 1863 2278 2177 2552 2399 2109 1527 1057 805 2121 2212 2086 1877 1879 1850 2217 2094 1781 1484
139 434 268 732 246 12 81 48 163 144 112 73 79 217 319 491 679 599 689 956 1030 1361 1502 1536 2388 2311 1404 2069 2508 2429 1741 2067 2212 2214 2812 2817 1886 1633 2287 2379 2273 2209 2346 2090 1902 1542 1507 1575 1743
854 737 178 328 299 40 62 90 134 145 136 96 39 49 304 519 616 512 729 782 752 934 1153 1420 2325 1762 1182 1835 2237 2542 2381 1943 2203 2501 1993 2116 2688 2259 2245 2282 2358 2176 1994 1836 1799 1688 1507 1508 1610
1112 150 509 301 76 88 120 49 62 129 111 64 57 109 261 367 348 435 474 671 734 894 1387 2250 2433 1313 1489 1646 1769 1955 2388 2342 2415 2525 2499 2284 2459 2414 2385 1975 1761 1637 1803 1976 1773 1394 1326 1357 1402
1168 176 228 168 101 139 155 112 80 84 32 32 27 84 163 167 264 404 563 656 729 946 1203 1435 2296 2353 1919 1741 1900 1981 2230 2280 2159 2503 2179 2364 2511 2293 2836 2053 2101 2148 1972 1695 1049 957 1109 1086 1122
79 27 87 102 122 89 93 92 38 78 0 0 2 27 38 210 340 445 484 616 761 929 1261 1392 1901 1981 1988 1753 1936 1956 2078 2055 2074 2134 2240 2348 2393 2264 2388 2205 2245 2040 1935 1500 1214 878 769 846 818
214 112 193 305 198 125 79 82 76 14 0 0 0 43 11 198 237 326 348 515 715 944 1122 1281 1421 1402 1773 1757 2043 2277 2242 1976 2236 2142 1935 2241 2353 2337 2074 2697 2342 2206 1882 1818 1771 1604 1407 1089 961
21 57 116 147 154 248 165 141 94 63 0 0 0 0 29 89 157 171 280 354 579 743 993 1115 1190 1253 1398 1509 2140 2062 2231 1859 1844 2207 2136 2213 2137 1944 2122 2853 2765 1950 1888 1742 1596 1613 1667 1815 1959
9 102 0 58 253 142 78 36 18 6 0 0 0 0 0 37 43 128 200 279 343 534 779 982 991 1074 1161 1400 1484 2212 1645 1625 1798 1660 1770 2131 1481 1284 1512 2054 2083 1844 1757 1660 1640 1542 1622 1959 1748
119 11 10 17 57 120 91 19 6 0 0 0 0 1 3 0 1 26 69 53 239 320 538 720 855 914 1098 1214 1459 1149 1063 1062 899 897 923 787 1007 1195 1209 1765 1981 1848 1704 1626 1622 1833 2141 1974 1190
68 14 2 3 122 91 171 2 17 4 0 0 0 0 8 7 16 0 0 45 123 281 235 415 633 780 727 1004 1103 810 605 383 448 494 445 432 588 1250 1336 1440 1498 1224 1338 790 857 794 713 813 753
248 90 58 22 111 171 561 161 46 23 16 0 0 0 0 1 0 0 0 18 74 44 135 335 471 360 471 647 645 417 441 691 650 503 569 691 722 953 488 517 645 637 577 487 358 465 619 864 809
290 113 157 275 274 495 291 132 76 29 13 0 0 0 0 2 0 0 0 5 28 0 0 194 375 203 247 540 289 372 438 659 253 282 556 853 789 649 255 139 191 264 267 436 531 656 913 773 578
96 278 339 207 357 484 83 58 46 0 2 0 0 0 0 0 0 0 0 0 0 0 0 19 125 61 226 344 190 286 376 381 400 572 451 658 668 435 100 225 383 381 436 534 699 793 622 927 1292
169 124 393 203 262 414 132 115 27 1 0 0 0 0 0 0 0 0 0 0 0 0 173 53 49 55 177 0 88 195 337 494 431 527 515 767 647 671 460 428 585 485 462 521 743 812 962 1102 788
112 105 54 175 324 371 159 33 29 1 11 1 0 0 0 0 0 1 0 0 0 22 205 104 64 162 127 195 118 158 272 402 394 448 631 648 746 760 870 1164 671 587 694 656 536 677 767 892 1037
7 71 226 26 0 37 346 147 145 22 4 0 0 0 0 0 0 0 0 0 0 18 185 373 602 604 202 307 507 267 429 421 502 642 682 706 607 727 1024 1102 643 545 369 521 691 776 782 932 517
32 43 375 358 243 29 183 265 100 67 25 0 0 0 0 0 0 0 0 0 2 14 89 211 276 472 580 743 936 538 580 508 1039 673 791 643 761 1091 1272 697 468 286 477 1020 1548 1641 1187 692 882
12 0 109 172 244 189 51 111 225 121 19 3 0 0 0 0 0 0 0 0 1 19 0 29 152 116 645 783 696 969 851 812 798 683 891 590 841 985 1380 1416 1016 400 669 1559 1686 670 1252 1115 1249
26 0 0 55 85 78 58 100 461 164 72 35 0 0 0 0 0 0 0 0 0 0 0 7 32 24 445 556 699 874 899 1004 813 669 735 785 898 1060 1221 1413 727 1110 1140 1931 1056 1049 952 1368 1374
22 6 0 1 148 135 131 95 286 346 187 157 65 7 0 0 0 0 0 0 0 1 9 132 83 148 321 630 768 882 852 1306 881 756 711 771 971 919 1147 1640 1149 1020 1964 1119 825 1254 860 1092 1177
1 1 1 4 73 22 71 11 452 392 280 230 219 127 56 0 0 0 0 0 0 0 0 391 203 278 269 416 929 1071 1049 1091 850 746 776 1114 1283 1129 1130 1572 1349 1593 1796 1215 1153 1047 1602 1383 988
0 0 2 0 37 12 2 0 4 398 385 307 326 218 124 2 0 0 0 0 6 0 34 599 360 306 459 759 528 1009 781 970 805 802 1154 1336 1284 1313 1249 1424 1859 1851 1376 1641 1369 1672 1350 1196 1642
0 0 0 0 1 14 2 2 0 395 568 448 415 311 181 23 0 0 0 0 4 9 86 522 357 269 246 928 1373 906 826 1086 913 831 1423 1483 1282 1443 1180 1286 1444 1244 1230 1384 1586 1392 1223 1019 1448
0 0 0 0 2 0 0 0 0 109 508 529 451 390 294 103 0 8 0 0 0 17 168 533 284 229 303 383 891 1138 1094 562 819 1043 980 1175 1515 1418 856 1023 936 1053 1579 1310 1193 1120 1494 1404 1180
0 0 0 0 0 0 0 0 0 6 259 499 434 470 357 234 64 11 3 0 0 43 259 610 394 363 412 194 680 987 1077 973 832 785 943 921 1062 1131 748 1091 897 1056 1798 2056 1751 1198 996 1083 1543
0 0 0 0 0 0 0 0 0 0 0 311 504 473 392 334 218 73 46 76 1 57 294 404 741 500 523 201 664 1126 1202 1591 1687 1218 787 904 656 574 773 1295 1546 1346 1535 1917 1733 1642 1404 1050 952
0 0 0 0 0 0 0 0 0 0 80 535 599 571 509 447 339 215 111 116 57 87 260 388 758 653 598 510 570 1029 1321 1650 1599 1832 1147 886 858 900 842 1517 1596 1790 1965 2071 2217 2034 1842 1688 1522
0 0 18 0 0 0 0 0 0 0 15 273 688 678 622 588 459 347 181 147 148 107 291 481 582 688 679 545 666 1032 1239 1583 1656 1376 1941 1805 1292 1963 1747 1714 1752 1818 2015 2252 2248 2444 2402 2225 2061
0 0 1 13 0 0 0 0 0 0 0 1 781 378 724 728 639 465 294 213 177 182 354 604 635 661 749 678 772 1021 1097 1208 1716 1515 1499 1613 1717 1934 2134 1929 1781 1787 1892 1831 2124 2189 2365 2396 1947
CIN
-56 -63 -101 -51 -100 -79 -41 -69 -28 -89 -95 -71 -51 -17 -115 -109 -79 -64 -69 -22 -22 -1 -1 -0 -0 -0 -0 -0 -0 -0 -0 -0 -0 -0 -0 -0 -16 -22 -24 -3 -0 -0 -0 -0 -0 -0 -0 -0 -4
-61 -56 -97 -53 -68 -47 -15 -17 -43 -28 -142 -140 -131 -136 -128 -66 -69 -22 -3 -7 -28 -2 -0 -1 -0 -0 -0 -0 -0 -0 -0 -0 -0 -0 -0 -0 -1 -1 -0 -0 -0 -0 -0 -0 -0 -4 -1 -0 -2
-6 -60 -105 -111 -90 -6 -9 -22 -43 -44 -8 -16 -172 -97 -62 -30 -10 -13 -29 -20 -34 -22 -6 -0 -0 -0 -0 -0 -0 -0 -0 -0 -0 -0 -2 -0 -0 -0 -0 -0 -0 -0 -0 -5 -10 -14 -12 -7 -7
-29 -139 -87 -79 -85 -17 -27 -26 -35 -46 -24 -38 -149 -110 -46 -10 -52 -49 -40 -28 -30 -15 -0 -0 -0 -0 -0 -0 -0 -0 -0 -0 -0 -0 -0 -0 -0 -0 -0 -0 -0 -2 -6 -10 -20 -28 -14 -13 -14
-62 -156 -93 -71 -42 -17 -32 -44 -24 -33 -29 -99 -165 -101 -37 -33 -68 -69 -40 -40 -53 -9 -1 -1 -0 -0 -0 -0 -0 -0 -0 -0 -0 -0 -0 -0 -0 -0 -0 -0 -0 -0 -9 -23 -43 -33 -32 -34 -30
-177 -20 -77 -36 -26 -20 -26 -43 -18 -18 -0 -0 -11 -103 -46 -39 -46 -48 -68 -66 -57 -15 -0 -0 -0 -0 -0 -0 -0 -0 -0 -0 -0 -0 -0 -0 -0 -0 -0 -0 -0 -11 -17 -24 -24 -39 -45 -45 -40
-97 -22 -18 -60 -21 -5 -59 -32 -10 -14 -0 -0 -0 -136 -9 -25 -65 -60 -74 -54 -39 -25 -1 -1 -1 -0 -0 -0 -0 -0 -0 -0 -0 -0 -0 -0 -0 -0 -0 -0 -3 -3 -12 -7 -19 -31 -36 -43 -35
-8 -1 -1 -12 -53 -9 -11 -8 -6 -0 -0 -0 -0 -0 -82 -43 -66 -74 -67 -60 -39 -37 -9 -4 -1 -2 -1 -1 -0 -0 -0 -0 -0 -0 -0 -0 -0 -0 -0 -0 -0 -14 -18 -22 -49 -49 -41 -37 -33
-31 -5 -0 -10 -51 -101 -23 -26 -58 -20 -0 -0 -0 -0 -0 -46 -44 -70 -44 -24 -39 -37 -26 -5 -2 -1 -1 -1 -0 -0 -0 -0 -0 -0 -0 -0 -0 -15 -21 -17 -7 -30 -44 -58 -63 -65 -57 -46 -34
-2 -0 -0 -44 -12 -102 -101 -14 -54 -0 -0 -0 -0 -5 -15 -0 -9 -78 -87 -98 -61 -58 -35 -33 -15 -5 -2 -0 -0 -1 -0 -3 -13 -21 -20 -32 -29 -37 -51 -24 -20 -42 -66 -86 -91 -82 -69 -49 -78
-133 -69 -25 -10 -43 -128 -102 -20 -13 -9 -0 -0 -0 -0 -17 -45 -66 -0 -0 -102 -111 -83 -71 -48 -40 -28 -27 -10 -4 -13 -20 -46 -60 -61 -79 -91 -51 -36 -36 -34 -52 -88 -95 -142 -147 -167 -193 -188 -118
-121 -28 -0 -23 -40 -45 -117 -23 -5 -6 -1 -0 -0 -0 -0 -36 -0 -0 -0 -78 -83 -121 -73 -52 -42 -41 -30 -48 -34 -35 -55 -37 -32 -72 -66 -75 -52 -68 -120 -120 -119 -141 -154 -171 -100 -28 -33 -26 -47
-28 -40 -59 -72 -97 -120 -72 -23 -2 -18 -11 -0 -0 -0 -0 -20 -0 -0 -0 -37 -101 -0 -0 -68 -49 -65 -127 -60 -122 -57 -42 -20 -62 -66 -46 -48 -64 -79 -185 -301 -260 -216 -194 -163 -137 -25 -24 -60 -103
-69 -57 -52 -69 -40 -41 -49 -15 -32 -3 -4 -0 -0 -0 -0 -0 -0 -0 -0 -0 -0 -0 -0 -80 -70 -101 -77 -59 -89 -65 -64 -77 -51 -56 -102 -56 -52 -91 -299 -208 -143 -137 -44 -73 -87 -69 -53 -67 -49
-34 -8 -38 -77 -5 -33 -25 -60 -55 -7 -0 -66 -0 -0 -0 -0 -0 -0 -0 -0 -0 -0 -87 -114 -112 -94 -62 -0 -56 -81 -65 -53 -78 -44 -79 -64 -89 -85 -22 -57 -113 -107 -81 -67 -74 -75 -72 -70 -49
-45 -132 -64 -89 -53 -30 -41 -69 -20 -8 -39 -2 -0 -0 -0 -0 -0 -11 -0 -0 -0 -47 -65 -95 -67 -161 -55 -29 -112 -130 -70 -55 -83 -73 -94 -58 -36 -65 -28 -57 -80 -85 -94 -75 -22 -13 -22 -31 -38
-9 -35 -69 -169 -0 -62 -54 -50 -110 -47 -30 -0 -0 -0 -0 -0 -0 -0 -0 -0 -0 -44 -56 -52 -47 -58 -112 -40 -61 -46 -37 -57 -46 -95 -92 -75 -83 -81 -44 -31 -81 -91 -100 -39 -24 -20 -99 -81 -86
-0 -14 -34 -34 -54 -30 -33 -58 -55 -97 -6 -0 -0 -0 -0 -0 -0 -0 -0 -0 -43 -60 -74 -54 -61 -40 -50 -54 -34 -64 -57 -27 -15 -48 -69 -54 -38 -30 -32 -153 -114 -167 -153 -108 -52 -43 -55 -122 -106
-0 -0 -19 -72 -74 -129 -174 -32 -49 -140 -39 -5 -0 -0 -0 -0 -0 -0 -0 -0 -47 -175 -0 -115 -93 -85 -46 -67 -26 -44 -55 -27 -35 -46 -51 -110 -77 -48 -33 -39 -39 -63 -110 -16 -35 -104 -54 -68 -65
-0 -0 -2 -15 -54 -61 -131 -126 -58 -63 -97 -39 -0 -0 -0 -0 -0 -0 -0 -0 -0 -0 -0 -55 -168 -166 -52 -52 -49 -26 -23 -34 -37 -84 -58 -53 -66 -41 -39 -37 -84 -84 -11 -49 -64 -78 -82 -98 -85
-0 -0 -0 -10 -21 -39 -80 -99 -76 -63 -38 -66 -151 -102 -0 -0 -0 -0 -0 -0 -0 -237 -175 -129 -178 -175 -87 -48 -64 -63 -31 -21 -38 -76 -85 -109 -69 -53 -52 -34 -27 -69 -65 -38 -43 -66 -100 -54 -74
-0 -0 -5 -20 -3 -4 -17 -3 -68 -101 -59 -90 -102 -131 -152 -0 -0 -0 -0 -0 -0 -0 -0 -133 -141 -136 -130 -67 -49 -42 -22 -25 -36 -73 -89 -94 -45 -82 -43 -10 -37 -38 -36 -37 -70 -92 -67 -52 -82
-0 -0 -1 -0 -18 -7 -0 -0 -2 -98 -32 -127 -107 -125 -106 -20 -0 -0 -0 -0 -392 -0 -317 -92 -99 -108 -62 -115 -59 -25 -29 -30 -34 -59 -66 -60 -58 -47 -62 -22 -29 -12 -8 -34 -59 -46 -46 -85 -64
-0 -0 -0 -0 -23 -9 -30 -0 -0 -123 -109 -116 -110 -108 -46 -170 -0 -0 -0 -0 -314 -381 -235 -123 -105 -118 -105 -47 -29 -23 -12 -13 -27 -31 -26 -19 -63 -31 -37 -12 -28 -10 -58 -31 -46 -61 -70 -121 -128
-0 -0 -0 -0 -5 -0 -0 -0 -0 -162 -130 -128 -120 -119 -95 -125 -9 -147 -0 -0 -0 -317 -243 -169 -176 -136 -103 -116 -23 -32 -16 -45 -33 -12 -33 -19 -30 -11 -33 -36 -47 -86 -63 -43 -34 -90 -63 -81 -128
-0 -0 -0 -0 -0 -0 -0 -0 -0 -62 -123 -121 -118 -107 -96 -99 -127 -123 -74 -0 -0 -314 -223 -157 -190 -129 -101 -196 -79 -54 -37 -35 -33 -22 -32 -31 -34 -37 -31 -80 -62 -106 -57 -44 -22 -113 -124 -118 -113
-0 -0 -0 -0 -0 -0 -0 -0 -0 -0 -11 -130 -159 -87 -64 -78 -68 -127 -213 -90 -23 -321 -248 -224 -183 -162 -113 -209 -99 -45 -21 -36 -37 -15 -13 -24 -51 -83 -77 -100 -46 -111 -60 -65 -40 -36 -84 -126 -157
-0 -0 -0 -0 -0 -0 -0 -0 -0 -0 -62 -111 -132 -133 -82 -74 -48 -72 -109 -129 -139 -325 -274 -228 -184 -172 -155 -110 -113 -51 -27 -33 -26 -51 -104 -83 -129 -82 -62 -133 -125 -102 -76 -51 -34 -23 -30 -55 -74
-0 -0 -0 -0 -0 -0 -0 -0 -0 -0 -4 -71 -73 -117 -153 -92 -36 -43 -62 -75 -73 -175 -240 -225 -203 -164 -157 -154 -132 -67 -46 -44 -24 -47 -31 -38 -43 -38 -29 -132 -97 -71 -47 -35 -9 -24 -20 -11 -18
-0 -0 -0 -2 -0 -2 -0 -0 -0 -0 -0 -95 -195 -25 -79 -123 -51 -37 -43 -29 -49 -45 -227 -214 -218 -185 -174 -179 -158 -108 -94 -83 -52 -52 -9 -40 -24 -38 -44 -100 -68 -76 -53 -27 -25 -18 -22 -9 -14
Wind_Speed
nan 14 9 14 20 14 nan nan 20 9 14 nan 17 nan 8 12 13 nan 8 8 7 8 7 6 5 2 2 4 4 4 3 4 4 7 6 1 4 12 15 18 18 15 12 11 8 10 8 9 11
14 11 10 8 13 nan nan nan 11 10 16 nan nan 2 10 9 7 5 5 9 7 8 10 7 4 4 3 5 3 5 4 4 3 2 4 9 13 13 16 15 13 12 11 11 8 10 11 13 16
13 12 11 12 12 nan nan nan 19 16 19 nan nan nan 9 7 9 11 9 8 7 8 11 9 9 7 5 7 5 2 2 5 4 4 13 14 17 15 11 9 10 11 8 8 13 15 17 16 17
11 15 14 12 nan nan 18 nan nan 13 11 nan nan 6 7 4 10 10 11 7 7 9 12 8 6 6 6 2 2 1 2 4 2 1 11 13 11 12 11 11 8 8 9 14 22 24 21 21 21
10 12 13 14 15 18 14 24 nan nan nan nan nan nan 6 3 11 14 10 9 9 11 10 10 9 7 4 2 1 1 1 2 2 2 3 6 8 8 9 10 9 8 15 23 24 23 20 21 19
nan nan nan 14 16 nan nan nan nan nan nan nan nan nan nan 13 12 13 9 8 8 10 10 9 4 5 2 2 2 2 1 2 3 2 4 5 6 9 11 9 10 13 22 25 25 23 20 18 18
14 9 15 18 8 15 nan nan nan nan nan nan nan nan nan 14 11 10 7 6 6 6 9 10 9 4 2 2 3 4 5 6 5 5 6 6 6 5 7 10 11 18 24 24 24 20 18 17 17
nan nan 14 11 7 9 21 19 nan nan nan nan nan nan nan nan 13 8 5 4 4 4 6 9 9 9 11 10 2 5 8 8 7 5 4 4 4 5 6 12 18 22 24 24 21 18 18 17 16
nan 12 nan nan 20 26 nan nan nan nan nan nan nan nan nan nan nan 10 5 3 5 5 5 7 7 9 9 9 8 9 8 10 8 7 4 8 13 12 12 16 22 23 23 23 21 20 18 19 21
9 nan nan nan nan 18 nan nan nan nan nan nan nan nan nan nan nan nan nan nan 10 9 10 10 9 10 10 10 12 16 18 20 17 15 11 12 12 14 15 23 23 24 24 22 23 22 23 22 22
nan nan nan nan 29 nan 19 nan nan nan nan nan nan nan nan nan nan nan nan nan 13 12 11 13 12 9 9 11 13 17 19 21 18 14 11 12 16 18 22 24 23 23 23 21 21 22 23 24 22
5 nan nan nan 16 17 23 16 nan nan nan nan nan nan nan nan nan nan nan nan nan nan 17 13 14 13 11 12 14 15 17 20 18 17 15 20 21 24 22 20 20 19 20 22 20 24 24 31 29
4 14 14 16 32 23 29 8 nan nan nan nan nan nan nan nan nan nan nan nan nan nan nan 17 14 12 12 11 16 14 17 18 16 20 23 26 26 25 21 19 17 17 18 20 20 24 22 28 24
nan 8 6 12 24 23 nan nan nan nan nan nan nan nan nan nan nan nan nan nan nan nan nan nan 18 nan 11 13 13 17 15 17 18 24 26 26 24 23 21 18 18 16 16 19 19 22 22 26 25
9 7 13 20 15 16 6 3 nan nan nan nan nan nan nan nan nan nan nan nan nan nan 14 nan nan nan 14 nan nan 18 16 18 22 26 25 24 21 20 19 18 17 15 17 19 15 20 20 22 22
13 14 nan 4 20 12 7 nan nan nan nan nan nan nan nan nan nan nan nan nan nan nan 10 11 nan 18 16 19 17 19 18 16 23 23 24 23 19 16 15 17 15 17 16 14 12 16 18 18 16
nan nan 8 nan nan nan 6 6 10 nan nan nan nan nan nan nan nan nan nan nan nan nan 11 8 9 15 16 16 16 15 15 20 22 22 21 19 17 14 13 15 13 12 12 15 15 18 14 15 12
nan nan 13 11 7 nan 1 2 13 nan nan nan nan nan nan nan nan nan nan nan nan nan nan 6 7 9 11 15 16 16 18 19 20 20 18 15 14 10 9 11 9 10 10 14 15 17 15 10 11
nan nan 13 9 4 10 nan 3 11 17 nan nan nan nan nan nan nan nan nan nan nan nan nan nan 4 7 5 13 14 16 16 15 17 18 15 11 11 10 8 7 7 9 7 12 13 10 12 13 11
nan nan nan nan nan nan nan 7 10 15 nan nan nan nan nan nan nan nan nan nan nan nan nan nan nan nan 5 7 13 13 12 12 10 10 9 7 6 5 3 2 4 5 2 9 11 10 11 10 9
nan nan nan nan 12 2 16 nan 3 9 10 10 nan nan nan nan nan nan nan nan nan nan nan 3 nan 2 7 7 12 16 17 15 12 11 7 3 1 1 3 4 3 2 3 2 10 10 9 10 11
nan nan nan nan nan nan nan nan 8 8 10 8 13 15 nan nan nan nan nan nan nan nan nan 6 2 1 8 8 10 11 12 8 9 5 4 3 5 5 7 8 9 6 5 4 9 11 10 10 11
nan nan nan nan nan nan nan nan nan 11 10 4 13 18 9 nan nan nan nan nan nan nan nan 9 6 2 6 9 10 9 8 7 7 9 5 4 6 6 8 10 12 10 9 7 8 11 10 10 9
nan nan nan nan nan nan nan nan nan 20 18 5 11 19 15 nan nan nan nan nan nan nan nan 12 10 4 8 9 9 9 8 8 10 10 7 5 6 4 5 6 7 8 9 10 9 10 10 8 8
nan nan nan nan nan nan nan nan nan 15 10 10 14 21 24 11 nan nan nan nan nan nan 13 14 13 8 8 9 11 11 8 8 9 7 6 6 7 5 1 2 5 8 8 7 7 8 8 8 10
nan nan nan nan nan nan nan nan nan nan 7 12 15 22 17 22 nan nan nan nan nan nan 14 15 14 12 11 10 12 13 14 11 12 8 4 4 5 5 8 6 7 6 5 6 7 10 9 10 10
nan nan nan nan nan nan nan nan nan nan nan 13 15 17 24 24 19 nan nan nan nan nan 15 15 16 14 15 17 15 14 15 13 13 11 9 4 5 8 8 6 4 7 9 9 10 11 11 12 11
nan nan nan nan nan nan nan nan nan nan nan 16 17 19 23 24 23 22 24 19 nan nan 15 16 17 14 15 20 16 18 20 18 16 17 12 13 9 6 10 11 10 10 10 11 12 14 16 14 13
nan nan nan nan nan nan nan nan nan nan nan 30 11 17 22 27 26 22 17 17 12 16 18 16 19 17 14 14 18 19 23 22 20 19 18 17 13 10 12 13 14 13 15 16 18 17 16 17 15
nan nan nan nan nan nan nan nan nan nan nan nan 44 26 10 16 25 23 14 16 17 16 20 20 21 20 17 16 17 14 17 19 20 21 21 22 17 18 19 16 18 19 19 20 20 18 18 19 20
Wind_Direction
nan 91 60 69 48 59 nan nan 19 21 3 nan 39 nan 90 138 92 nan 66 59 14 70 84 81 56 95 224 251 242 254 262 258 306 308 287 239 62 93 113 93 100 116 113 113 103 108 108 108 96
81 79 89 90 67 nan nan nan 322 340 339 nan nan 149 140 105 135 37 69 23 46 76 104 93 65 132 152 186 227 230 272 298 337 63 102 112 93 86 84 108 117 126 144 133 131 118 122 108 87
93 73 78 118 48 nan nan nan 4 355 359 nan nan nan 63 74 351 66 10 17 56 81 98 86 71 107 130 144 178 170 268 314 347 58 69 130 90 98 97 116 137 137 142 118 104 107 100 92 87
123 136 85 116 nan nan 27 nan nan 359 4 nan nan 94 110 43 84 40 4 30 71 86 98 81 72 88 97 124 123 59 302 317 11 16 51 76 95 114 127 154 145 130 106 96 97 100 98 88 85
198 177 153 89 66 31 22 357 nan nan nan nan nan nan 81 349 356 360 15 44 78 91 98 111 100 103 68 59 29 31 66 356 4 185 126 123 126 138 151 159 143 109 90 96 96 89 85 82 85
nan nan nan 79 52 nan nan nan nan nan nan nan nan nan nan 348 3 9 18 42 65 94 113 109 93 105 76 44 44 53 45 67 99 120 128 112 150 168 169 151 114 93 92 95 88 81 69 67 66
173 76 109 90 34 26 nan nan nan nan nan nan nan nan nan 6 24 19 4 29 59 93 130 134 132 107 11 78 53 80 112 121 119 131 132 146 149 157 146 121 99 94 96 91 85 81 82 75 64
nan nan 118 149 165 69 14 8 nan nan nan nan nan nan nan nan 8 13 354 27 61 89 117 120 133 144 143 126 119 113 127 114 105 115 113 100 135 146 112 105 95 97 94 90 91 90 85 85 86
nan 181 nan nan 103 111 nan nan nan nan nan nan nan nan nan nan nan 353 353 65 92 83 78 113 120 128 130 132 117 130 131 130 119 134 128 153 146 131 114 101 101 99 98 95 91 82 78 80 81
282 nan nan nan nan 90 nan nan nan nan nan nan nan nan nan nan nan nan nan nan 63 69 78 80 110 123 118 122 133 139 140 149 140 140 144 148 136 121 115 111 102 102 98 97 95 93 87 84 87
nan nan nan nan 77 nan 91 nan nan nan nan nan nan nan nan nan nan nan nan nan 45 45 63 67 83 100 121 139 142 143 148 148 143 131 134 134 130 119 119 116 112 107 101 97 99 98 102 95 87
256 nan nan nan 106 80 58 16 nan nan nan nan nan nan nan nan nan nan nan nan nan nan 50 79 87 95 119 133 142 135 141 142 141 126 114 124 124 114 113 111 107 106 103 95 96 101 101 98 99
305 324 15 117 111 67 76 10 nan nan nan nan nan nan nan nan nan nan nan nan nan nan nan 73 73 101 103 123 123 133 138 138 124 120 116 123 124 118 116 111 104 93 91 90 95 99 96 104 110
nan 321 349 21 82 80 nan nan nan nan nan nan nan nan nan nan nan nan nan nan nan nan nan nan 72 nan 117 113 126 137 143 124 119 122 123 117 121 122 116 104 93 89 91 90 104 98 96 114 112
199 273 269 190 147 154 260 295 nan nan nan nan nan nan nan nan nan nan nan nan nan nan 54 nan nan nan 90 nan nan 128 132 125 127 125 124 120 122 110 100 94 86 83 85 89 105 103 127 125 119
204 201 nan 248 118 73 245 nan nan nan nan nan nan nan nan nan nan nan nan nan nan nan 54 67 nan 79 89 121 123 131 133 134 134 129 130 123 122 106 98 90 83 80 84 99 115 109 123 118 107
nan nan 210 nan nan nan 305 306 17 nan nan nan nan nan nan nan nan nan nan nan nan nan 29 52 71 85 96 115 125 123 128 135 138 140 136 126 124 113 101 94 80 68 83 118 127 116 119 126 107
nan nan 221 279 10 nan 27 63 6 nan nan nan nan nan nan nan nan nan nan nan nan nan nan 41 43 59 84 113 130 137 139 141 144 147 148 141 133 113 102 98 90 75 77 122 134 125 138 123 107
nan nan 196 237 269 317 nan 83 354 331 nan nan nan nan nan nan nan nan nan nan nan nan nan nan 77 67 109 134 133 139 137 135 151 153 154 153 141 131 134 130 79 59 64 127 131 145 145 149 132
nan nan nan nan nan nan nan 317 343 349 nan nan nan nan nan nan nan nan nan nan nan nan nan nan nan nan 120 152 151 152 153 146 143 157 163 156 148 144 148 76 65 52 85 125 150 145 171 172 144
nan nan nan nan 232 339 281 nan 334 48 8 20 nan nan nan nan nan nan nan nan nan nan nan 335 nan 148 141 168 172 164 172 171 167 160 171 160 161 354 313 304 331 356 309 148 170 183 193 181 162
nan nan nan nan nan nan nan nan 220 15 67 20 358 329 nan nan nan nan nan nan nan nan nan 297 328 302 183 191 183 191 180 184 179 167 193 250 299 295 290 283 286 294 267 214 192 192 200 219 195
nan nan nan nan nan nan nan nan nan 292 74 77 2 347 315 nan nan nan nan nan nan nan nan 265 273 251 209 206 201 197 187 199 235 232 235 220 263 284 281 279 269 259 246 224 202 208 214 217 238
nan nan nan nan nan nan nan nan nan 274 20 70 358 351 346 nan nan nan nan nan nan nan nan 270 275 262 223 216 212 210 218 234 242 243 248 233 252 241 269 269 251 233 225 226 216 224 228 234 234
nan nan nan nan nan nan nan nan nan 287 352 23 359 14 353 349 nan nan nan nan nan nan 288 270 274 274 242 236 219 214 225 247 269 277 287 290 261 244 189 183 207 208 196 218 236 247 245 246 242
nan nan nan nan nan nan nan nan nan nan 290 352 337 357 338 344 nan nan nan nan nan nan 294 282 272 270 254 248 236 221 230 221 231 252 248 291 329 280 220 197 176 180 209 217 232 236 247 255 255
nan nan nan nan nan nan nan nan nan nan nan 288 299 320 339 342 325 nan nan nan nan nan 287 296 286 274 264 250 242 242 241 239 242 265 256 271 263 274 247 204 197 199 205 211 231 231 238 249 249
nan nan nan nan nan nan nan nan nan nan nan 261 303 311 321 315 310 309 312 297 nan nan 274 283 290 299 277 272 263 250 250 246 241 246 258 255 242 257 263 258 240 236 232 225 229 227 228 238 238
nan nan nan nan nan nan nan nan nan nan nan 253 220 297 315 303 316 333 304 289 279 264 265 272 279 281 284 288 279 263 258 256 248 245 247 249 249 244 266 276 267 255 248 250 249 243 243 244 239
nan nan nan nan nan nan nan nan nan nan nan nan 230 209 199 301 312 314 297 279 267 276 260 268 268 273 274 274 277 280 268 266 265 258 252 252 245 245 255 253 260 256 254 256 257 258 257 260 255